SL-14 DEB, 45315

Orbit data source: Space-Track

SL-14 DEB, 45315 is space debris in LEO originally from a launch on Thu, 15 Aug 1991 UTC launched from the Plesetsk Missile And Space Complex (PKMTR). Debris objects in space refer to the collection of defunct objects orbiting the Earth. Examples of debris include non-operational satellites, rocket bodies, and fragments generated from explosions, collisions, or faulty payload assembly.

Loading next visibility...
Identifier
45315, 1991-056BD
Orbit
LEO
Last TLE update
1 day ago
Origin
Manufacturer
Unknown
Mission
Spacecraft
Bus & Motor
Unknown
Mass
Unknown
Launch date (UTC)
1991-08-15 (34 years ago)
Launch vehicle
Unknown
Launch site
Plesetsk Missile And Space Complex (PKMTR)
Object type
Payload
Rocket body
Debris
Shape & HBR
Unknown
Radar Cross Section
Small (<0.1 m²)

Expand to show TLE details & history

TLE from 1 day ago
0 SL-14 DEB
1 45315U 91056BD  25191.01255282  .00000402  00000-0  10362-2 0  9992
2 45315  82.5605  27.9995 0028203 329.6748  30.2741 13.15307918257628
Epoch: 2025-07-10T00:18Z
TLE epoch observation values (Epoch: 2025-07-10T00:18:04.563Z)
Latitude
0.00003°
Longitude
95.29555°
Altitude
1,187.048 km
Speed
7.269 km/s
True Right ascension
01h 51m 59s
True Declination
0° 00' 00"
Sunlit
Object was in daylight at epoch
Visualization orbit readout
Latitude
35.25725°
Longitude
99.59616°
Altitude
1,199.711 km
Speed
7.261 km/s
Apparent Right ascension
05h 14m 14s
Apparent Declination
2° 34' 52"
Sunlit
Object is in daylight
Visualization observer readout
Local Sidereal Time
21:38:11
Azimuth
72.063° E
Elevation
-16.434°
Doppler factor
1
Orbital elements
Apogee altitude
1,221.314 km
Perigee altitude
1,178.569 km
Semi-major axis
7,578.079 km
Eccentricity
0.00282
Inclination
82.5605°
RAAN
27.9995°
Arg. of periapsis
329.6748°
True anomaly
Unknown
Mean anomaly
30.2741°
Eccentric anomaly
Unknown
Mean motion
3.29007 °/min
Orbital period
109.42 mins
BSTAR
0.0010362
Loading maneuver chart data...
Loading SW <> Apogee altitude chart data...
Loading historical data...
Loading historical data...
Loading historical data...
Loading historical data...
Loading historical data...
Loading historical data...
Loading historical data...

SL-14 DEB Visibility forecast

Observer location: undefined°, undefined°

Span
Click to sort rows by Start time (UTC) header in descending order
Start Az.
Max El. time (UTC)
Max El. Az.
Max El.
End time (UTC)
End Az.
13 mins2025-07-11 12:54:29.406Z152.248° SSE2025-07-11 13:00:29.406Z95.41° ESE31.836°2025-07-11 13:07:29.406Z23.074° NE
11 mins2025-07-11 14:46:29.406Z229.247° WSW2025-07-11 14:51:29.406Z290.878° WNW31.169°2025-07-11 14:57:29.406Z350.517° N
13 mins2025-07-12 00:22:29.406Z4.913° NNE2025-07-12 00:28:29.406Z85.264° E39.361°2025-07-12 00:35:29.406Z155.3° SSE
10 mins2025-07-12 02:13:29.406Z321.976° NNW2025-07-12 02:18:29.406Z271.314° WNW23.979°2025-07-12 02:23:29.406Z225.726° WSW
|